This is the latest recevied weather packets stored in our database for station/object KR4DFQ. If no packets are shown the sender has not sent any weather packets the latest 10 day(s).
| Time | Temp. | Humidity | Pressure | Rain* | Wind** | Luminosity | Snow |
|---|---|---|---|---|---|---|---|
| 1787436683 | 32.78° C | 61% | 1015.8 hPa | 0 mm | - | 200 W/m² | - |
| 1787436379 | 32.78° C | 61% | 1016 hPa | 0 mm | - | 223 W/m² | - |
| 1787436079 | 32.78° C | 60% | 1015.6 hPa | 0 mm | - | 213 W/m² | - |
| 1787435774 | 32.78° C | 61% | 1015.4 hPa | 0 mm | - | 146 W/m² | - |
| 1787435470 | 32.78° C | 62% | 1015.6 hPa | 0 mm | - | 187 W/m² | - |
| 1787435167 | 32.78° C | 62% | 1015.9 hPa | 0 mm | - | 166 W/m² | - |
| 1787434862 | 33.33° C | 60% | 1016 hPa | 0 mm | - | 268 W/m² | - |
| 1787434558 | 33.33° C | 60% | 1016 hPa | 0 mm | - | 308 W/m² | - |
| 1787434254 | 33.33° C | 60% | 1016 hPa | 0 mm | - | 344 W/m² | - |
| 1787433949 | 33.33° C | 60% | 1016.1 hPa | 0 mm | - | 388 W/m² | - |
| 1787433649 | 33.89° C | 59% | 1016.2 hPa | 0 mm | - | 195 W/m² | - |
| 1787433345 | 33.89° C | 58% | 1016.3 hPa | 0 mm | - | 432 W/m² | - |
| 1787433041 | 33.89° C | 60% | 1016.3 hPa | 0 mm | - | 452 W/m² | - |
| 1787432738 | 33.89° C | 59% | 1016.3 hPa | 0 mm | - | 488 W/m² | - |
| 1787432438 | 33.89° C | 58% | 1016.3 hPa | 0 mm | - | 507 W/m² | - |
| 1787432138 | 33.89° C | 57% | 1016.1 hPa | 0 mm | - | 516 W/m² | - |
| 1787431836 | 33.89° C | 56% | 1016 hPa | 0 mm | - | 521 W/m² | - |
| 1787431532 | 33.89° C | 57% | 1016 hPa | 0 mm | - | 560 W/m² | - |
| 1787431228 | 33.89° C | 58% | 1016 hPa | 0 mm | - | 576 W/m² | - |
| 1787430925 | 33.89° C | 58% | 1015.8 hPa | 0 mm | - | 585 W/m² | - |
| 1787430620 | 33.89° C | 55% | 1015.7 hPa | 0 mm | - | 586 W/m² | - |
| 1787430317 | 33.89° C | 58% | 1015.7 hPa | 0 mm | - | 553 W/m² | - |
| 1787430013 | 33.33° C | 59% | 1015.7 hPa | 0 mm | - | 533 W/m² | - |
| 1787429708 | 33.89° C | 58% | 1015.9 hPa | 0 mm | - | 497 W/m² | - |
| 1787429403 | 33.89° C | 56% | 1015.9 hPa | 0 mm | - | 537 W/m² | - |
* Rain latest hour (hover to see other rain measurements)
** Current wind speed in m/s (hover to see current wind gust speed)